EW9733 Weather Reports


Display with metric or nautical units.
time (UTC)temp
F
wind
direction
speed
MPH
gust
MPH
rain 1hr
in
rain 24hr
in
rain mn
in
humidity
%
barometer
mb
20240227111525 48 212 3.0 8.0 0.00 0.00 0.00 82 1014.8
20240227110021 48 202 3.0 8.0 0.00 0.00 0.00 83 1014.6
20240227104518 48 189 3.0 10.0 0.00 0.00 0.00 84 1014.5
20240227103017 47 196 4.0 8.0 0.00 0.00 0.00 85 1014.5
20240227101526 47 213 3.0 7.0 0.00 0.00 0.00 86 1014.5
20240227100014 47 218 2.0 8.0 0.00 0.00 0.00 87 1014.5
20240227094510 47 191 2.0 7.0 0.00 0.00 0.00 88 1014.5
20240227093007 47 198 2.0 6.0 0.00 0.00 0.00 89 1014.6
20240227091509 46 211 3.0 9.0 0.00 0.00 0.00 90 1014.5
20240227090003 46 201 3.0 8.0 0.00 0.00 0.00 90 1014.5
20240227084601 45 225 3.0 5.0 0.00 0.00 0.00 90 1014.5
20240227083106 44 184 3.0 7.0 0.00 0.00 0.00 90 1014.5
20240227081555 44 235 3.0 7.0 0.00 0.00 0.00 90 1014.4
20240227080054 44 216 2.0 6.0 0.00 0.00 0.00 90 1014.5
20240227074552 43 202 2.0 7.0 0.00 0.00 0.00 89 1014.6
20240227073056 43 198 1.0 5.0 0.00 0.00 0.00 89 1014.7
20240227071548 43 197 2.0 7.0 0.00 0.00 0.00 89 1014.8
20240227070049 44 189 0.0 4.0 0.00 0.00 0.00 89 1014.9
20240227064550 44 183 1.0 3.0 0.00 0.00 0.00 89 1014.9
20240227063048 44 201 1.0 4.0 0.00 0.00 0.00 90 1015.1
20240227061559 44 195 1.0 5.0 0.00 0.00 0.00 90 1015.2
20240227060119 43 207 1.0 4.0 0.00 0.00 0.00 89 1015.1
20240227054541 43 201 1.0 4.0 0.00 0.00 0.00 89 1015.1
20240227053052 43 220 1.0 3.0 0.00 0.00 0.00 89 1015.2
20240227051537 43 207 0.0 2.0 0.00 0.00 0.00 89 1015.2
20240227050035 42 208 0.0 3.0 0.00 0.00 0.00 88 1015.3
20240227044536 42 220 1.0 3.0 0.00 0.00 0.00 88 1015.4
20240227043034 42 227 1.0 3.0 0.00 0.00 0.00 88 1015.5
20240227041533 42 250 2.0 5.0 0.00 0.00 0.00 87 1015.5
20240227040031 42 192 0.0 4.0 0.00 0.00 0.00 86 1015.5
20240227034531 42 184 0.0 3.0 0.00 0.00 0.00 85 1015.7
20240227033031 42 184 0.0 5.0 0.00 0.00 0.00 85 1015.9
20240227031541 42 163 0.0 0.0 0.00 0.00 0.00 84 1015.8
20240227030049 43 163 0.0 0.0 0.00 0.00 0.00 83 1015.8
20240227024529 43 164 0.0 1.0 0.00 0.00 0.00 84 1015.8
20240227023029 43 163 0.0 0.0 0.00 0.00 0.00 84 1015.7
20240227021528 44 163 0.0 1.0 0.00 0.00 0.00 84 1015.7
20240227020028 44 164 0.0 1.0 0.00 0.00 0.00 84 1015.6
20240227014527 44 165 0.0 3.0 0.00 0.00 0.00 83 1015.6
20240227013028 45 170 1.0 2.0 0.00 0.00 0.00 81 1015.7
20240227011529 45 171 0.0 0.0 0.00 0.00 0.00 80 1015.7
20240227010026 46 171 0.0 0.0 0.00 0.00 0.00 79 1015.7
20240227004532 47 171 0.0 0.0 0.00 0.00 0.00 79 1015.7
20240227003032 47 171 0.0 2.0 0.00 0.00 0.00 78 1015.7
20240227001534 48 171 0.0 2.0 0.00 0.00 0.00 77 1015.6
20240227000026 49 171 1.0 3.0 0.00 0.00 0.00 76 1015.7
20240226234530 49 119 0.0 3.0 0.00 0.00 0.00 76 1015.5
20240226233022 50 117 0.0 1.0 0.00 0.00 0.00 75 1015.3
20240226231536 51 117 1.0 2.0 0.00 0.00 0.00 75 1015.2
20240226230022 52 117 2.0 8.0 0.00 0.00 0.00 73 1015.2
20240226224520 54 119 4.0 8.0 0.00 0.00 0.00 70 1015.0
20240226223037 55 135 3.0 7.0 0.00 0.00 0.00 67 1014.9
20240226221518 56 130 2.0 5.0 0.00 0.00 0.00 67 1014.8
20240226220018 56 136 2.0 8.0 0.00 0.00 0.00 67 1014.7
20240226214517 56 122 4.0 9.0 0.00 0.00 0.00 66 1014.5
20240226213017 56 123 3.0 10.0 0.00 0.00 0.00 65 1014.4
20240226211526 57 119 6.0 9.0 0.00 0.00 0.00 60 1014.5
20240226210017 58 98 5.0 8.0 0.00 0.00 0.00 59 1014.4
20240226204515 59 49 4.0 7.0 0.00 0.00 0.00 60 1014.3
20240226203014 59 67 2.0 6.0 0.00 0.00 0.00 57 1014.3
20240226201516 60 5 0.0 4.0 0.00 0.00 0.00 56 1014.3
20240226200020 60 245 2.0 6.0 0.00 0.00 0.00 51 1014.3
20240226194514 60 249 2.0 7.0 0.00 0.00 0.00 53 1014.3
20240226193011 60 192 3.0 6.0 0.00 0.00 0.00 51 1014.4
20240226191510 61 182 2.0 5.0 0.00 0.00 0.00 51 1014.4
20240226190007 60 223 2.0 5.0 0.00 0.00 0.00 49 1014.5
20240226184506 60 250 1.0 8.0 0.00 0.00 0.00 52 1014.8
20240226183004 59 317 2.0 5.0 0.00 0.00 0.00 51 1014.8
20240226181606 59 270 2.0 6.0 0.00 0.00 0.00 54 1015.0
20240226180056 58 262 4.0 10.0 0.00 0.00 0.00 52 1015.2
20240226174555 58 244 3.0 10.0 0.00 0.00 0.00 54 1015.4
20240226173051 58 256 3.0 8.0 0.00 0.00 0.00 55 1015.6
20240226171554 57 190 6.0 12.0 0.00 0.00 0.00 55 1015.9
20240226170045 56 303 1.0 12.0 0.00 0.00 0.00 57 1016.1
20240226164540 56 232 5.0 10.0 0.00 0.00 0.00 58 1016.3
20240226163049 55 268 3.0 10.0 0.00 0.00 0.00 57 1016.4
20240226161542 55 240 4.0 11.0 0.00 0.00 0.00 58 1016.5
20240226160039 54 257 4.0 10.0 0.00 0.00 0.00 60 1016.5
20240226154530 53 254 5.0 12.0 0.00 0.00 0.00 62 1016.5
20240226153028 52 240 5.0 10.0 0.00 0.00 0.00 64 1016.5
20240226151525 50 261 5.0 14.0 0.00 0.00 0.00 65 1016.5
20240226150021 50 234 7.0 13.0 0.00 0.00 0.00 67 1016.5
20240226144524 49 224 5.0 13.0 0.00 0.00 0.00 70 1016.6
20240226143019 49 256 5.0 15.0 0.00 0.00 0.00 71 1016.8
20240226141508 47 223 3.0 12.0 0.00 0.00 0.00 75 1016.9
20240226140004 46 231 5.0 12.0 0.00 0.00 0.00 77 1016.8
20240226134600 45 226 6.0 12.0 0.00 0.00 0.00 79 1017.0
20240226133056 43 224 6.0 15.0 0.00 0.00 0.00 81 1017.0
20240226131552 42 194 6.0 14.0 0.00 0.00 0.00 83 1017.0
20240226130057 41 227 4.0 10.0 0.00 0.00 0.00 84 1016.9
20240226124552 40 206 4.0 9.0 0.00 0.00 0.00 85 1016.9
20240226123043 39 205 2.0 9.0 0.00 0.00 0.00 84 1016.9
20240226121546 39 204 4.0 10.0 0.00 0.00 0.00 84 1016.8
20240226120038 39 184 4.0 10.0 0.00 0.00 0.00 84 1016.7
20240226114618 39 229 4.0 10.0 0.00 0.00 0.00 84 1016.8
20240226113046 39 224 3.0 13.0 0.00 0.00 0.00 84 1016.5